Location: Borderline Observatory
(42.7345°N, 72.8696°W)
Time: 09:00:04
(UTC-04:00)

Daily predictions for brighter satellites

Satellite Brightness Start Highest point End
(mag) Time Altitude Azimuth Time Altitude Azimuth Time Altitude Azimuth
SL-16 R/B 2.2 20:44:44 10° S 20:50:18 63° ESE 20:55:53 10° NNE
CZ-4 DEB 3.9 20:48:50 10° S 20:51:56 44° W 20:55:04 10° NNW
SPOT 5 3.6 20:48:33 10° SE 20:52:30 32° ENE 20:56:22 10° N
Cosmos 1666 3.4 20:51:53 10° N 20:55:35 39° ENE 20:59:15 10° SSE
Lacrosse 5 rocket 1.5 20:55:42 10° SW 20:59:32 73° NW 21:03:36 10° NE
Cosmos 1331 Rocket 4.0 20:55:33 10° NNW 21:00:48 90° W 21:05:58 10° SSE
Lacrosse 5 3.9 20:59:19 10° W 21:03:52 32° NNW 21:08:25 10° NE
CZ-4 SHROUD 3.9 21:01:49 10° SE 21:04:46 38° ENE 21:07:45 10° N
Meteor 1-23 Rocket 4.2 20:59:18 10° S 21:04:54 74° E 21:10:37 10° NNE
Cosmos 2285 Rocket 4.0 20:59:43 10° NNW 21:06:05 84° ENE 21:12:26 10° SSE
Cosmos 1743 3.4 21:03:15 10° NNW 21:07:03 56° W 21:10:47 10° S
Cosmos 1302 Rocket 4.1 21:04:50 10° NNW 21:10:03 66° ENE 21:15:14 10° SSE
Cosmos 1726 Rocket 4.1 21:06:03 10° NNW 21:10:29 63° W 21:14:50 10° S
SL-8 R/B 4.5 21:08:27 10° W 21:13:12 56° NNW 21:17:58 10° ENE
ALOS 3.9 21:10:41 10° SSW 21:14:55 34° W 21:19:11 10° NNW
SeaSat 1 2.5 21:10:21 10° SE 21:15:14 70° ENE 21:20:10 10° NNW
Okean 2 3.4 21:12:00 10° S 21:16:11 88° W 21:20:24 10° N
CZ-4B R/B 4.2 21:13:56 10° NNE 21:18:34 35° E 21:23:17 10° SSE
Cosmos 1464 Rocket 4.0 21:12:53 10° N 21:19:03 88° W 21:25:13 10° S
Cosmos 1603 4.1 21:13:57 10° S 21:19:10 41° ESE 21:24:25 10° NE
Terra 3.9 21:18:27 10° E 21:20:36 13° ENE 21:22:44 10° NNE
Timation 1 Rocket 4.5 21:14:48 10° NNW 21:20:50 69° ENE 21:26:08 13° SE
Cosmos 2058 Rocket 3.5 21:17:09 10° NNW 21:21:29 62° W 21:25:46 10° S
APEX 3.6 21:18:22 10° NNW 21:22:19 86° ENE 21:26:56 13° SSE
Meteor 2-9 Rocket 4.3 21:17:37 10° N 21:23:19 87° W 21:29:06 10° S
GRACE-1 4.3 21:20:52 10° NNE 21:23:40 46° E 21:25:43 16° SSE
GRACE-2 4.3 21:21:18 10° NNE 21:24:06 46° E 21:26:09 16° SSE
Meteor 2-4 Rocket 4.1 21:21:30 10° SSW 21:27:20 73° W 21:33:17 10° N
Cosmos 1602 Rocket 3.6 21:25:26 10° S 21:29:51 66° E 21:34:19 10° NNE
Cosmos 2333 Rocket 4.5 21:26:21 10° WSW 21:31:11 28° NW 21:36:03 10° N
deb Chang Zheng 4 4.4 21:27:08 10° N 21:31:27 53° WNW 21:35:42 10° SSW
Cosmos 1461 2.9 21:27:20 10° NNW 21:31:41 72° NE 21:34:38 18° SE
ATLAS 3B R/B 3.9 21:29:52 10° SSE 21:35:40 25° ESE 21:41:30 10° ENE
Milstar 3 Cent rocket 4.1 21:33:17 10° WSW 21:36:30 14° SSW 21:39:11 10° S
Cosmos 2034 Rocket 4.1 21:30:32 10° N 21:36:56 86° W 21:43:17 10° S
PSLV R/B 3.4 21:37:02 15° S 21:39:29 67° W 21:42:35 10° NNW
Cosmos 1812 Rocket 3.6 21:35:15 10° N 21:39:36 61° E 21:42:44 18° SSE
CZ-2C R/B 3.7 21:39:08 10° WSW 21:39:46 11° W 21:40:24 10° WNW
ERS-1 Rocket 4.4 21:39:14 10° SSW 21:43:47 34° W 21:48:22 10° NNW
Envisat 3.3 21:39:45 10° S 21:44:47 66° W 21:49:51 10° NNW
Cosmos 1943 4.1 21:41:51 17° SSE 21:44:58 28° ESE 21:49:44 10° NE
BREEZE-M DEB (TANK) 2.0 21:42:10 10° SW 21:46:16 62° SSE 21:48:16 11° ENE
USA 245 4.4 21:42:59 16° SSE 21:47:53 67° ENE 21:53:11 10° N
USA 234 3.3 21:43:14 17° SE 21:48:28 87° SW 21:55:06 10° NW
YAOGAN 6 2.6 21:50:25 23° SSE 21:52:36 74° ENE 21:56:21 10° N
H-2A R/B 3.9 21:49:58 10° SSW 21:53:34 27° W 21:57:15 10° NW
USA 81 4.4 21:49:27 10° N 21:54:37 50° E 21:57:43 23° SSE
Cosmos 1943 Rocket 4.0 21:53:10 10° N 21:56:59 19° NE 22:00:44 10° E
MetOp-A 4.3 21:56:20 15° S 22:00:45 71° WSW 22:06:07 10° NNW
Abrixas rocket 3.3 21:59:34 10° WNW 22:02:42 33° SW 22:03:38 28° S
Cosmos 1626 Rocket 4.3 21:59:06 10° SSW 22:03:26 54° W 22:07:48 10° N
Meteor 2-12 Rocket 4.4 22:05:07 10° N 22:11:14 84° W 22:15:36 20° S
Atlas Centaur 2 3.7 22:08:02 10° SW 22:14:53 31° SSE 22:18:15 24° SE
CZ-4C R/B 3.5 22:15:26 34° SSE 22:17:14 71° ENE 22:21:22 10° N
Cosmos 1953 Rocket 3.7 22:18:28 35° SSE 22:19:59 53° E 22:24:19 10° NNE
H-2A R/B 2.3 22:19:21 30° SE 22:21:26 50° ENE 22:26:18 10° N
Cosmos 2346 Rocket 4.4 22:17:09 20° S 22:21:36 77° E 22:27:46 10° N
SAR-Lupe-2 4.0 22:21:49 41° ESE 22:22:31 47° ENE 22:25:59 10° N
PSLV R/B 3.8 22:19:29 10° WSW 22:22:27 43° S 22:22:27 43° S
Cosmos 1992 Rocket 3.9 22:18:01 10° NNW 22:23:17 89° ENE 22:25:45 32° SSE
CZ-4 R/B 4.0 22:18:28 10° NNE 22:23:27 83° WNW 22:27:22 17° SSW
COSMOS 2455 2.8 22:18:08 10° SSW 22:24:08 89° ESE 22:30:12 10° NNE
Cosmos 2369 Rocket 2.2 22:23:05 10° NNW 22:28:47 72° ENE 22:31:20 33° SE
SPOT 1/Viking Rocket 4.1 22:26:44 21° S 22:30:01 53° W 22:35:03 10° NNW
DELTA 2 DEB (DPAF) 4.1 22:29:29 35° S 22:31:21 81° WSW 22:35:52 10° NNW
ARGOS 3.4 22:29:23 25° S 22:32:32 65° WSW 22:37:57 10° NNW
Spot 4 4.1 22:35:17 37° SE 22:36:48 53° ENE 22:41:28 10° N
Cosmos 1953 3.5 22:34:02 10° NNE 22:37:28 27° ENE 22:37:47 27° E
IGS 5A 3.6 22:36:44 45° ESE 22:37:40 57° ENE 22:41:46 10° N
Geosat 4.0 22:32:46 10° NNE 22:37:50 87° WNW 22:42:04 15° SSW
DMSP B5D2-2 4.3 22:32:54 10° NNE 22:38:05 53° E 22:39:47 38° SSE
Lacrosse 5 rocket 4.3 22:36:40 10° WNW 22:39:28 18° NNW 22:42:22 10° NNE
Cosmos 1190 Rocket 3.9 22:37:27 29° S 22:40:14 75° ESE 22:45:34 10° NNE
NOAA 11 4.5 22:37:27 27° S 22:40:23 61° W 22:45:46 10° NNW
Landsat 7 3.8 22:40:04 38° S 22:41:53 79° WSW 22:46:40 10° NNW
Cosmos-2242 3.6 22:40:11 10° N 22:44:23 43° ENE 22:45:05 39° ESE
Meteor 1-22 Rocket 4.2 22:39:35 10° NNW 22:45:08 84° W 22:47:40 35° S
Spot 2 4.3 22:44:46 10° NNE 22:49:30 72° ESE 22:51:03 43° S
Cosmos 2263 4.2 22:44:29 10° NNW 22:50:07 76° ENE 22:52:07 41° SE
COSMOS 2406 4.4 22:50:41 25° E 22:50:41 25° E 22:55:11 10° NE
SL-24 R/B 4.4 22:46:11 10° N 22:51:05 81° E 22:52:51 42° S
Cosmos 1758 Rocket 3.5 22:53:08 44° SSW 22:54:28 79° W 22:58:52 10° N
Lacrosse 4 Rocket 1.2 22:55:02 64° ESE 22:55:02 64° ESE 22:59:04 10° NE
Cosmos 676 Rocket 4.0 22:54:57 45° SSE 22:56:24 62° ESE 23:01:41 10° NNE
Terra 1.8 22:56:20 47° S 22:57:41 79° WSW 23:02:28 10° NNW
CARTOSAT-1 3.6 22:57:34 51° SSW 22:58:32 70° WSW 23:02:52 10° NNW
Cosmos 1346 Rocket 3.5 23:03:05 36° SW 23:04:12 48° WNW 23:08:01 10° N
Cosmos 1140 Rocket 4.0 23:09:35 40° ESE 23:09:43 40° ESE 23:14:36 10° NE
Cosmos 1900 4.3 23:17:42 47° SSW 23:19:15 87° ESE 23:24:25 10° NNE
CZ-4C R/B 4.4 23:22:49 11° E 23:22:49 11° E 23:23:16 10° E
Cosmos 1758 3.2 23:17:37 10° N 23:21:45 87° ENE 23:21:45 87° ENE
Cosmos 1842 3.5 23:23:02 61° W 23:23:13 62° W 23:27:07 10° N
Nadezhda 4 Rocket 4.0 23:21:21 47° SSE 23:23:15 72° E 23:29:34 10° NNE
Cosmos 1842 Rocket 3.7 23:19:28 10° N 23:23:47 58° E 23:23:51 58° E
ATLAS 3B R/B 3.0 23:18:03 10° SW 23:25:46 78° NW 23:33:19 10° NNE
SL-27 R/B 3.7 23:29:35 34° NNE 23:29:35 34° NNE 23:31:38 10° NNE
Cosmos 1943 4.2 23:23:33 11° SW 23:28:46 44° WNW 23:34:13 10° NNE
Cosmos 407 Rocket 4.2 23:27:23 25° SW 23:30:14 51° WNW 23:35:21 10° N
Meteor 2-5 Rocket 4.3 23:34:17 42° ESE 23:34:59 43° E 23:40:28 10° NNE
Cosmos 2208 Rocket 4.0 23:32:25 10° NNW 23:37:35 68° ENE 23:38:18 59° ESE
Cosmos 1544 3.8 23:36:30 10° N 23:39:32 50° NNE 23:39:32 50° NNE
Cosmos 1943 Rocket 2.1 23:35:48 10° NNW 23:41:22 77° WSW 23:42:15 62° S
Cosmos 614 Rocket 4.3 23:43:39 50° E 23:43:39 50° E 23:48:32 10° NNE
Cosmos 1954 Rocket 4.4 23:47:02 41° SW 23:48:43 60° WNW 23:53:59 10° NNE
CZ-4B R/B 3.1 23:50:30 30° NE 23:50:30 30° NE 23:53:09 10° N
